Time,TemperatureF,DewpointF,PressureIn,WindDirection,WindDirectionDegrees,WindSpeedMPH,WindSpeedGustMPH,Humidity,HourlyPrecipIn,Conditions,Clouds,dailyrainin,SoftwareType,DateUTC
2013-01-21 00:00:00,25.6,15.3,30.34,NNE,14,0.0,0.0,64,0.00,,---,0.00,VWS V14.00,2013-01-21 08:00:00,
2013-01-21 00:09:00,25.4,14.8,30.34,NNE,14,0.0,0.0,64,0.00,,---,0.00,VWS V14.00,2013-01-21 08:09:00,
2013-01-21 00:14:00,25.2,14.6,30.34,NNE,14,0.0,0.0,64,0.00,,---,0.00,VWS V14.00,2013-01-21 08:14:00,
2013-01-21 00:19:00,25.1,14.1,30.34,NNE,14,0.0,0.0,62,0.00,,---,0.00,VWS V14.00,2013-01-21 08:19:00,
2013-01-21 00:24:00,25.3,14.7,30.34,NNE,14,0.0,0.0,64,0.00,,---,0.00,VWS V14.00,2013-01-21 08:24:00,
2013-01-21 00:29:00,25.3,14.3,30.34,NNE,14,0.0,0.0,62,0.00,,---,0.00,VWS V14.00,2013-01-21 08:29:00,
2013-01-21 00:34:00,22.1,11.6,30.34,NNE,14,0.0,0.0,64,0.00,,---,0.00,VWS V14.00,2013-01-21 08:34:00,
2013-01-21 00:39:00,20.4,11.4,30.34,NNE,14,0.0,2.0,68,0.00,,---,0.00,VWS V14.00,2013-01-21 08:39:00,
2013-01-21 00:44:00,19.8,11.8,30.34,NNE,14,2.0,5.0,70,0.00,,---,0.00,VWS V14.00,2013-01-21 08:44:00,
2013-01-21 00:49:00,20.1,12.1,30.34,NNE,14,2.0,5.0,70,0.00,,---,0.00,VWS V14.00,2013-01-21 08:49:00,
2013-01-21 00:54:00,20.2,12.2,30.34,NNE,14,0.0,4.0,70,0.00,,---,0.00,VWS V14.00,2013-01-21 08:54:00,
2013-01-21 00:59:00,20.0,12.3,30.34,NNE,14,0.0,0.0,72,0.00,,---,0.00,VWS V14.00,2013-01-21 08:59:00,
2013-01-21 01:04:00,20.4,12.7,30.34,NNE,14,0.0,0.0,72,0.00,,---,0.00,VWS V14.00,2013-01-21 09:04:00,
2013-01-21 01:09:00,22.1,14.0,30.34,NNE,14,0.0,0.0,70,0.00,,---,0.00,VWS V14.00,2013-01-21 09:09:00,
2013-01-21 01:14:00,23.5,15.0,30.34,NNE,14,0.0,0.0,70,0.00,,---,0.00,VWS V14.00,2013-01-21 09:14:00,
2013-01-21 01:19:00,23.7,14.2,30.34,NNE,14,0.0,0.0,66,0.00,,---,0.00,VWS V14.00,2013-01-21 09:19:00,
2013-01-21 01:24:00,23.7,13.5,30.34,NNE,14,0.0,0.0,64,0.00,,---,0.00,VWS V14.00,2013-01-21 09:24:00,
2013-01-21 01:29:00,22.9,12.7,30.34,NNE,14,0.0,0.0,64,0.00,,---,0.00,VWS V14.00,2013-01-21 09:29:00,
2013-01-21 01:34:00,23.0,12.8,30.34,NNE,14,0.0,0.0,64,0.00,,---,0.00,VWS V14.00,2013-01-21 09:34:00,
2013-01-21 01:39:00,22.5,12.4,30.34,NNE,14,0.0,0.0,64,0.00,,---,0.00,VWS V14.00,2013-01-21 09:39:00,
2013-01-21 01:44:00,22.1,12.3,30.35,NNE,14,0.0,0.0,66,0.00,,---,0.00,VWS V14.00,2013-01-21 09:44:00,
2013-01-21 01:49:00,21.7,12.6,30.35,NNE,14,0.0,0.0,68,0.00,,---,0.00,VWS V14.00,2013-01-21 09:49:00,
2013-01-21 01:54:00,21.0,12.3,30.35,NNE,14,0.0,0.0,68,0.00,,---,0.00,VWS V14.00,2013-01-21 09:54:00,
2013-01-21 01:59:00,20.6,12.2,30.36,NNE,14,0.0,0.0,70,0.00,,---,0.00,VWS V14.00,2013-01-21 09:59:00,
2013-01-21 02:04:00,20.2,12.2,30.36,NNE,14,0.0,0.0,70,0.00,,---,0.00,VWS V14.00,2013-01-21 10:04:00,
2013-01-21 02:09:00,20.2,12.5,30.36,NNE,14,0.0,0.0,72,0.00,,---,0.00,VWS V14.00,2013-01-21 10:09:00,
2013-01-21 02:14:00,20.5,12.8,30.36,NNE,14,0.0,0.0,72,0.00,,---,0.00,VWS V14.00,2013-01-21 10:14:00,
2013-01-21 02:19:00,20.8,13.1,30.36,NNE,14,0.0,0.0,72,0.00,,---,0.00,VWS V14.00,2013-01-21 10:19:00,
2013-01-21 02:24:00,21.1,13.0,30.36,NNE,14,0.0,0.0,70,0.00,,---,0.00,VWS V14.00,2013-01-21 10:24:00,
2013-01-21 02:29:00,21.2,13.1,30.36,NNE,14,0.0,0.0,70,0.00,,---,0.00,VWS V14.00,2013-01-21 10:29:00,
2013-01-21 02:34:00,21.6,13.2,30.36,NNE,14,0.0,0.0,70,0.00,,---,0.00,VWS V14.00,2013-01-21 10:34:00,
2013-01-21 02:39:00,22.4,13.6,30.36,NNE,14,0.0,0.0,68,0.00,,---,0.00,VWS V14.00,2013-01-21 10:39:00,
2013-01-21 02:44:00,22.7,13.6,30.36,NNE,14,0.0,0.0,68,0.00,,---,0.00,VWS V14.00,2013-01-21 10:44:00,
2013-01-21 02:49:00,22.5,13.4,30.36,NNE,14,0.0,0.0,68,0.00,,---,0.00,VWS V14.00,2013-01-21 10:49:00,
2013-01-21 02:54:00,22.5,13.4,30.36,NNE,14,0.0,0.0,68,0.00,,---,0.00,VWS V14.00,2013-01-21 10:54:00,
2013-01-21 02:59:00,22.2,13.1,30.36,NNE,14,0.0,0.0,68,0.00,,---,0.00,VWS V14.00,2013-01-21 10:59:00,
2013-01-21 03:04:00,21.9,12.8,30.36,NNE,14,0.0,0.0,68,0.00,,---,0.00,VWS V14.00,2013-01-21 11:04:00,
2013-01-21 03:09:00,21.8,12.7,30.36,NNE,14,0.0,0.0,68,0.00,,---,0.00,VWS V14.00,2013-01-21 11:09:00,
2013-01-21 03:14:00,21.8,12.7,30.36,NNE,14,0.0,0.0,68,0.00,,---,0.00,VWS V14.00,2013-01-21 11:14:00,
2013-01-21 03:19:00,21.8,12.7,30.35,NNE,14,0.0,0.0,68,0.00,,---,0.00,VWS V14.00,2013-01-21 11:19:00,
2013-01-21 03:24:00,21.8,12.7,30.35,NNE,14,0.0,0.0,68,0.00,,---,0.00,VWS V14.00,2013-01-21 11:24:00,
2013-01-21 03:29:00,21.8,12.7,30.35,NNE,14,0.0,0.0,68,0.00,,---,0.00,VWS V14.00,2013-01-21 11:29:00,
2013-01-21 03:34:00,21.8,12.7,30.35,NNE,14,0.0,0.0,68,0.00,,---,0.00,VWS V14.00,2013-01-21 11:34:00,
2013-01-21 03:39:00,21.8,12.7,30.35,NNE,14,0.0,0.0,68,0.00,,---,0.00,VWS V14.00,2013-01-21 11:39:00,
2013-01-21 03:44:00,21.8,12.7,30.35,NNE,14,0.0,0.0,68,0.00,,---,0.00,VWS V14.00,2013-01-21 11:44:00,
2013-01-21 03:49:00,21.8,12.7,30.35,NNE,14,0.0,0.0,68,0.00,,---,0.00,VWS V14.00,2013-01-21 11:49:00,
2013-01-21 03:54:00,21.8,12.7,30.35,NNE,14,0.0,0.0,68,0.00,,---,0.00,VWS V14.00,2013-01-21 11:54:00,
2013-01-21 03:59:00,21.8,12.7,30.35,NNE,14,0.0,0.0,68,0.00,,---,0.00,VWS V14.00,2013-01-21 11:59:00,
2013-01-21 04:04:00,21.8,12.7,30.35,NNE,14,0.0,0.0,68,0.00,,---,0.00,VWS V14.00,2013-01-21 12:04:00,
2013-01-21 04:09:00,21.8,12.7,30.35,NNE,14,0.0,0.0,68,0.00,,---,0.00,VWS V14.00,2013-01-21 12:09:00,
2013-01-21 04:14:00,21.8,12.7,30.34,NNE,14,0.0,0.0,68,0.00,,---,0.00,VWS V14.00,2013-01-21 12:14:00,
2013-01-21 04:19:00,21.8,12.7,30.34,NNE,14,0.0,0.0,68,0.00,,---,0.00,VWS V14.00,2013-01-21 12:19:00,
2013-01-21 04:24:00,21.8,12.7,30.34,NNE,14,0.0,0.0,68,0.00,,---,0.00,VWS V14.00,2013-01-21 12:24:00,
2013-01-21 04:29:00,21.8,12.7,30.34,NNE,14,0.0,0.0,68,0.00,,---,0.00,VWS V14.00,2013-01-21 12:29:00,
2013-01-21 04:34:00,21.8,12.7,30.34,NNE,14,0.0,0.0,68,0.00,,---,0.00,VWS V14.00,2013-01-21 12:34:00,
2013-01-21 04:39:00,21.8,12.7,30.34,NNE,14,0.0,0.0,68,0.00,,---,0.00,VWS V14.00,2013-01-21 12:39:00,
2013-01-21 04:44:00,21.8,12.7,30.33,NNE,14,0.0,0.0,68,0.00,,---,0.00,VWS V14.00,2013-01-21 12:44:00,
2013-01-21 04:49:00,21.8,12.7,30.33,NNE,14,0.0,0.0,68,0.00,,---,0.00,VWS V14.00,2013-01-21 12:49:00,
2013-01-21 04:54:00,21.8,12.7,30.33,NNE,14,0.0,0.0,68,0.00,,---,0.00,VWS V14.00,2013-01-21 12:54:00,
2013-01-21 04:59:00,21.8,12.7,30.33,NNE,14,0.0,0.0,68,0.00,,---,0.00,VWS V14.00,2013-01-21 12:59:00,
2013-01-21 05:04:00,21.8,12.7,30.33,NNE,14,0.0,0.0,68,0.00,,---,0.00,VWS V14.00,2013-01-21 13:04:00,
2013-01-21 05:09:00,21.8,12.7,30.33,NNE,14,0.0,0.0,68,0.00,,---,0.00,VWS V14.00,2013-01-21 13:09:00,
2013-01-21 05:14:00,21.8,12.7,30.33,NNE,14,0.0,0.0,68,0.00,,---,0.00,VWS V14.00,2013-01-21 13:14:00,
2013-01-21 05:19:00,21.8,12.7,30.33,NNE,14,0.0,0.0,68,0.00,,---,0.00,VWS V14.00,2013-01-21 13:19:00,
2013-01-21 05:24:00,21.8,12.7,30.33,NNE,14,0.0,0.0,68,0.00,,---,0.00,VWS V14.00,2013-01-21 13:24:00,
2013-01-21 05:29:00,21.8,12.7,30.32,NNE,14,0.0,0.0,68,0.00,,---,0.00,VWS V14.00,2013-01-21 13:29:00,
2013-01-21 05:34:00,21.8,12.7,30.32,NNE,14,0.0,0.0,68,0.00,,---,0.00,VWS V14.00,2013-01-21 13:34:00,
2013-01-21 05:39:00,21.8,12.7,30.32,NNE,14,0.0,0.0,68,0.00,,---,0.00,VWS V14.00,2013-01-21 13:39:00,
2013-01-21 05:44:00,21.8,12.7,30.32,NNE,14,0.0,0.0,68,0.00,,---,0.00,VWS V14.00,2013-01-21 13:44:00,
2013-01-21 05:54:00,21.8,12.7,30.32,NNE,14,0.0,0.0,68,0.00,,---,0.00,VWS V14.00,2013-01-21 13:54:00,
2013-01-21 05:59:00,21.8,12.7,30.32,NNE,14,0.0,0.0,68,0.00,,---,0.00,VWS V14.00,2013-01-21 13:59:00,
2013-01-21 06:04:00,21.8,12.7,30.32,NNE,14,0.0,0.0,68,0.00,,---,0.00,VWS V14.00,2013-01-21 14:04:00,
2013-01-21 06:09:00,21.8,12.7,30.32,NNE,14,0.0,0.0,68,0.00,,---,0.00,VWS V14.00,2013-01-21 14:09:00,
2013-01-21 06:14:00,21.8,12.7,30.32,NNE,14,0.0,0.0,68,0.00,,---,0.00,VWS V14.00,2013-01-21 14:14:00,
2013-01-21 06:19:00,21.8,12.7,30.32,NNE,14,0.0,0.0,68,0.00,,---,0.00,VWS V14.00,2013-01-21 14:19:00,
2013-01-21 06:24:00,21.8,12.7,30.32,NNE,14,0.0,0.0,68,0.00,,---,0.00,VWS V14.00,2013-01-21 14:24:00,
2013-01-21 06:29:00,21.8,12.7,30.33,NNE,14,0.0,0.0,68,0.00,,---,0.00,VWS V14.00,2013-01-21 14:29:00,
2013-01-21 06:34:00,21.8,12.7,30.33,NNE,14,0.0,0.0,68,0.00,,---,0.00,VWS V14.00,2013-01-21 14:34:00,
2013-01-21 06:39:00,21.8,12.7,30.32,NNE,14,0.0,0.0,68,0.00,,---,0.00,VWS V14.00,2013-01-21 14:39:00,
2013-01-21 06:44:00,21.8,12.7,30.32,NNE,14,0.0,0.0,68,0.00,,---,0.00,VWS V14.00,2013-01-21 14:44:00,
2013-01-21 06:49:00,21.8,12.7,30.32,NNE,14,0.0,0.0,68,0.00,,---,0.00,VWS V14.00,2013-01-21 14:49:00,
2013-01-21 06:54:00,21.8,12.7,30.32,NNE,14,0.0,0.0,68,0.00,,---,0.00,VWS V14.00,2013-01-21 14:54:00,
2013-01-21 06:59:00,21.8,12.7,30.32,NNE,14,0.0,0.0,68,0.00,,---,0.00,VWS V14.00,2013-01-21 14:59:00,
2013-01-21 07:04:00,21.8,12.7,30.33,NNE,14,0.0,0.0,68,0.00,,---,0.00,VWS V14.00,2013-01-21 15:04:00,
2013-01-21 07:09:00,21.8,12.7,30.32,NNE,14,0.0,0.0,68,0.00,,---,0.00,VWS V14.00,2013-01-21 15:09:00,
2013-01-21 07:14:00,21.8,12.7,30.32,NNE,14,0.0,0.0,68,0.00,,---,0.00,VWS V14.00,2013-01-21 15:14:00,
2013-01-21 07:19:00,21.8,12.7,30.33,NNE,14,0.0,0.0,68,0.00,,---,0.00,VWS V14.00,2013-01-21 15:19:00,
2013-01-21 07:24:00,21.8,12.7,30.33,NNE,14,0.0,0.0,68,0.00,,---,0.00,VWS V14.00,2013-01-21 15:24:00,
2013-01-21 07:29:00,21.8,12.7,30.33,NNE,14,0.0,0.0,68,0.00,,---,0.00,VWS V14.00,2013-01-21 15:29:00,
2013-01-21 07:34:00,21.8,12.7,30.33,NNE,14,0.0,0.0,68,0.00,,---,0.00,VWS V14.00,2013-01-21 15:34:00,
2013-01-21 07:39:00,21.8,12.7,30.33,NNE,14,0.0,0.0,68,0.00,,---,0.00,VWS V14.00,2013-01-21 15:39:00,
2013-01-21 07:44:00,21.8,12.7,30.33,NNE,14,0.0,0.0,68,0.00,,---,0.00,VWS V14.00,2013-01-21 15:44:00,
2013-01-21 07:49:00,19.0,10.7,30.33,NNE,14,0.0,0.0,70,0.00,,---,0.00,VWS V14.00,2013-01-21 15:49:00,
2013-01-21 07:54:00,19.2,10.9,30.34,NNE,14,0.0,0.0,70,0.00,,---,0.00,VWS V14.00,2013-01-21 15:54:00,
2013-01-21 07:59:00,19.7,11.0,30.33,NNE,14,0.0,0.0,68,0.00,,---,0.00,VWS V14.00,2013-01-21 15:59:00,
2013-01-21 08:04:00,20.5,11.8,30.34,NNE,14,0.0,0.0,68,0.00,,---,0.00,VWS V14.00,2013-01-21 16:04:00,
2013-01-21 08:09:00,21.1,12.0,30.34,NNE,14,0.0,0.0,68,0.00,,---,0.00,VWS V14.00,2013-01-21 16:09:00,
2013-01-21 08:14:00,21.8,12.7,30.34,NNE,14,0.0,0.0,68,0.00,,---,0.00,VWS V14.00,2013-01-21 16:14:00,
2013-01-21 08:19:00,22.2,12.8,30.34,NNE,14,0.0,0.0,66,0.00,,---,0.00,VWS V14.00,2013-01-21 16:19:00,
2013-01-21 08:24:00,22.7,12.9,30.34,NNE,14,0.0,0.0,66,0.00,,---,0.00,VWS V14.00,2013-01-21 16:24:00,
2013-01-21 08:29:00,23.6,13.4,30.34,NNE,14,0.0,0.0,64,0.00,,---,0.00,VWS V14.00,2013-01-21 16:29:00,
2013-01-21 08:34:00,24.0,13.4,30.35,NNE,14,0.0,0.0,64,0.00,,---,0.00,VWS V14.00,2013-01-21 16:34:00,
2013-01-21 08:39:00,24.2,13.3,30.34,NNE,14,0.0,0.0,62,0.00,,---,0.00,VWS V14.00,2013-01-21 16:39:00,
2013-01-21 08:44:00,24.3,13.4,30.34,NNE,14,0.0,0.0,62,0.00,,---,0.00,VWS V14.00,2013-01-21 16:44:00,
2013-01-21 08:49:00,24.3,13.4,30.35,NNE,14,0.0,0.0,62,0.00,,---,0.00,VWS V14.00,2013-01-21 16:49:00,
2013-01-21 08:54:00,24.2,13.6,30.35,NNE,14,0.0,0.0,64,0.00,,---,0.00,VWS V14.00,2013-01-21 16:54:00,
2013-01-21 08:59:00,24.0,13.8,30.35,NNE,14,0.0,0.0,64,0.00,,---,0.00,VWS V14.00,2013-01-21 16:59:00,
2013-01-21 09:04:00,24.0,13.8,30.35,NNE,14,0.0,0.0,64,0.00,,---,0.00,VWS V14.00,2013-01-21 17:04:00,
2013-01-21 09:09:00,24.1,14.2,30.35,NNE,14,0.0,0.0,66,0.00,,---,0.00,VWS V14.00,2013-01-21 17:09:00,
2013-01-21 09:14:00,24.2,14.3,30.36,NNE,14,0.0,0.0,66,0.00,,---,0.00,VWS V14.00,2013-01-21 17:14:00,
2013-01-21 09:19:00,24.4,14.2,30.36,NNE,14,0.0,0.0,64,0.00,,---,0.00,VWS V14.00,2013-01-21 17:19:00,
2013-01-21 09:24:00,24.7,14.1,30.36,NNE,14,0.0,0.0,64,0.00,,---,0.00,VWS V14.00,2013-01-21 17:24:00,
2013-01-21 09:29:00,24.9,14.3,30.36,NNE,14,0.0,0.0,64,0.00,,---,0.00,VWS V14.00,2013-01-21 17:29:00,
2013-01-21 09:34:00,25.0,14.4,30.36,NNE,14,0.0,0.0,64,0.00,,---,0.00,VWS V14.00,2013-01-21 17:34:00,
2013-01-21 09:39:00,25.2,14.6,30.36,NNE,14,0.0,0.0,64,0.00,,---,0.00,VWS V14.00,2013-01-21 17:39:00,
2013-01-21 09:44:00,25.5,14.5,30.36,NNE,14,0.0,0.0,62,0.00,,---,0.00,VWS V14.00,2013-01-21 17:44:00,
2013-01-21 09:49:00,26.1,14.7,30.36,NNE,14,0.0,0.0,62,0.00,,---,0.00,VWS V14.00,2013-01-21 17:49:00,
2013-01-21 09:54:00,26.9,15.8,30.36,NNE,14,0.0,0.0,62,0.00,,---,0.00,VWS V14.00,2013-01-21 17:54:00,
2013-01-21 09:59:00,27.8,15.9,30.36,NNE,14,0.0,0.0,60,0.00,,---,0.00,VWS V14.00,2013-01-21 17:59:00,
2013-01-21 10:04:00,28.0,15.3,30.36,NNE,14,0.0,0.0,58,0.00,,---,0.00,VWS V14.00,2013-01-21 18:04:00,
2013-01-21 10:09:00,27.9,15.6,30.36,NNE,14,0.0,0.0,60,0.00,,---,0.00,VWS V14.00,2013-01-21 18:09:00,
2013-01-21 10:14:00,28.0,15.7,30.36,NNE,14,0.0,0.0,60,0.00,,---,0.00,VWS V14.00,2013-01-21 18:14:00,
2013-01-21 10:19:00,28.3,16.0,30.36,NNE,14,0.0,0.0,60,0.00,,---,0.00,VWS V14.00,2013-01-21 18:19:00,
2013-01-21 10:24:00,28.4,16.5,30.36,NNE,14,0.0,0.0,60,0.00,,---,0.00,VWS V14.00,2013-01-21 18:24:00,
2013-01-21 10:29:00,28.6,16.7,30.36,NNE,14,5.0,6.0,60,0.00,,---,0.00,VWS V14.00,2013-01-21 18:29:00,
2013-01-21 10:34:00,28.6,16.3,30.36,NNE,14,3.0,5.0,60,0.00,,---,0.00,VWS V14.00,2013-01-21 18:34:00,
2013-01-21 10:39:00,28.7,16.4,30.36,NNE,14,1.0,6.0,60,0.00,,---,0.00,VWS V14.00,2013-01-21 18:39:00,
2013-01-21 10:44:00,29.1,16.4,30.36,NNE,14,2.0,5.0,58,0.00,,---,0.00,VWS V14.00,2013-01-21 18:44:00,
2013-01-21 10:49:00,29.6,16.5,30.37,NNE,14,0.0,5.0,58,0.00,,---,0.00,VWS V14.00,2013-01-21 18:49:00,
2013-01-21 10:54:00,30.0,16.4,30.36,NNE,14,0.0,2.0,56,0.00,,---,0.00,VWS V14.00,2013-01-21 18:54:00,
2013-01-21 10:59:00,30.7,16.7,30.36,NNE,14,0.0,0.0,56,0.00,,---,0.00,VWS V14.00,2013-01-21 18:59:00,
2013-01-21 11:04:00,31.9,17.4,30.36,NNE,14,0.0,0.0,54,0.00,,---,0.00,VWS V14.00,2013-01-21 19:04:00,
2013-01-21 11:09:00,32.9,17.9,30.35,NNE,14,2.0,2.0,54,0.00,,---,0.00,VWS V14.00,2013-01-21 19:09:00,
2013-01-21 11:14:00,33.2,17.7,30.35,NNE,14,0.0,3.0,52,0.00,,---,0.00,VWS V14.00,2013-01-21 19:14:00,
2013-01-21 11:19:00,33.5,18.0,30.35,NNE,14,5.0,5.0,52,0.00,,---,0.00,VWS V14.00,2013-01-21 19:19:00,
2013-01-21 11:24:00,33.1,17.6,30.35,NNE,14,4.0,6.0,52,0.00,,---,0.00,VWS V14.00,2013-01-21 19:24:00,
2013-01-21 11:29:00,32.8,16.9,30.34,NNE,14,0.0,5.0,52,0.00,,---,0.00,VWS V14.00,2013-01-21 19:29:00,
2013-01-21 11:34:00,33.0,17.5,30.34,NNE,14,2.0,2.0,52,0.00,,---,0.00,VWS V14.00,2013-01-21 19:34:00,
2013-01-21 11:39:00,33.5,18.0,30.33,NNE,14,0.0,3.0,52,0.00,,---,0.00,VWS V14.00,2013-01-21 19:39:00,
2013-01-21 11:44:00,33.8,17.8,30.33,NNE,14,0.0,0.0,52,0.00,,---,0.00,VWS V14.00,2013-01-21 19:44:00,
2013-01-21 11:49:00,33.9,17.9,30.33,NNE,14,4.0,6.0,52,0.00,,---,0.00,VWS V14.00,2013-01-21 19:49:00,
2013-01-21 11:54:00,33.6,17.6,30.33,NNE,14,5.0,6.0,52,0.00,,---,0.00,VWS V14.00,2013-01-21 19:54:00,
2013-01-21 11:59:00,33.7,17.7,30.32,NNE,14,4.0,7.0,52,0.00,,---,0.00,VWS V14.00,2013-01-21 19:59:00,
2013-01-21 12:04:00,33.7,17.7,30.32,NNE,14,6.0,6.0,52,0.00,,---,0.00,VWS V14.00,2013-01-21 20:04:00,
2013-01-21 12:10:00,33.9,17.5,30.32,NNE,14,2.0,6.0,50,0.00,,---,0.00,VWS V14.00,2013-01-21 20:10:00,
2013-01-21 12:19:00,34.4,17.0,30.31,NNE,14,1.0,5.0,48,0.00,,---,0.00,VWS V14.00,2013-01-21 20:19:00,
2013-01-21 12:24:00,34.8,17.4,30.31,NNE,14,0.0,5.0,48,0.00,,---,0.00,VWS V14.00,2013-01-21 20:24:00,
2013-01-21 12:29:00,35.0,16.6,30.31,NNE,14,0.0,0.0,46,0.00,,---,0.00,VWS V14.00,2013-01-21 20:29:00,
2013-01-21 12:34:00,35.2,17.2,30.31,NNE,14,0.0,0.0,48,0.00,,---,0.00,VWS V14.00,2013-01-21 20:34:00,
2013-01-21 12:39:00,35.3,17.3,30.31,NNE,14,0.0,0.0,48,0.00,,---,0.00,VWS V14.00,2013-01-21 20:39:00,
2013-01-21 12:44:00,35.5,17.0,30.30,NNE,14,0.0,0.0,46,0.00,,---,0.00,VWS V14.00,2013-01-21 20:44:00,
2013-01-21 12:49:00,35.8,16.8,30.30,NNE,14,0.0,0.0,46,0.00,,---,0.00,VWS V14.00,2013-01-21 20:49:00,
2013-01-21 12:54:00,36.2,17.7,30.30,NNE,14,0.0,0.0,46,0.00,,---,0.00,VWS V14.00,2013-01-21 20:54:00,
2013-01-21 12:59:00,36.4,17.4,30.30,NNE,14,0.0,0.0,46,0.00,,---,0.00,VWS V14.00,2013-01-21 20:59:00,
2013-01-21 13:04:00,36.9,17.3,30.30,NNE,14,0.0,0.0,44,0.00,,---,0.00,VWS V14.00,2013-01-21 21:04:00,
2013-01-21 13:09:00,37.5,17.3,30.29,NNE,14,0.0,0.0,44,0.00,,---,0.00,VWS V14.00,2013-01-21 21:09:00,
2013-01-21 13:14:00,37.7,18.0,30.29,NNE,14,0.0,0.0,44,0.00,,---,0.00,VWS V14.00,2013-01-21 21:14:00,
2013-01-21 13:19:00,38.0,17.2,30.29,NNE,14,0.0,0.0,42,0.00,,---,0.00,VWS V14.00,2013-01-21 21:19:00,
2013-01-21 13:24:00,38.2,18.0,30.28,NNE,14,0.0,0.0,44,0.00,,---,0.00,VWS V14.00,2013-01-21 21:24:00,
2013-01-21 13:29:00,38.1,17.9,30.28,NNE,14,0.0,0.0,44,0.00,,---,0.00,VWS V14.00,2013-01-21 21:29:00,
2013-01-21 13:34:00,38.1,17.9,30.28,NNE,14,0.0,0.0,44,0.00,,---,0.00,VWS V14.00,2013-01-21 21:34:00,
2013-01-21 13:39:00,38.3,17.5,30.28,NNE,14,0.0,0.0,42,0.00,,---,0.00,VWS V14.00,2013-01-21 21:39:00,
2013-01-21 13:44:00,38.6,17.8,30.28,NNE,14,0.0,0.0,42,0.00,,---,0.00,VWS V14.00,2013-01-21 21:44:00,
2013-01-21 13:49:00,38.8,18.0,30.28,NNE,14,0.0,0.0,42,0.00,,---,0.00,VWS V14.00,2013-01-21 21:49:00,
2013-01-21 13:54:00,38.8,18.0,30.28,NNE,14,6.0,7.0,42,0.00,,---,0.00,VWS V14.00,2013-01-21 21:54:00,
2013-01-21 13:59:00,38.6,18.9,30.28,NNE,14,1.0,8.0,44,0.00,,---,0.00,VWS V14.00,2013-01-21 21:59:00,
2013-01-21 14:04:00,38.6,18.3,30.28,NNE,14,1.0,6.0,44,0.00,,---,0.00,VWS V14.00,2013-01-21 22:04:00,
2013-01-21 14:09:00,38.8,18.5,30.27,NNE,14,0.0,3.0,44,0.00,,---,0.00,VWS V14.00,2013-01-21 22:09:00,
2013-01-21 14:14:00,39.5,18.6,30.27,NNE,14,0.0,0.0,42,0.00,,---,0.00,VWS V14.00,2013-01-21 22:14:00,
2013-01-21 14:19:00,40.4,19.4,30.27,NNE,14,0.0,0.0,42,0.00,,---,0.00,VWS V14.00,2013-01-21 22:19:00,
2013-01-21 14:24:00,41.3,19.1,30.27,NNE,14,0.0,0.0,40,0.00,,---,0.00,VWS V14.00,2013-01-21 22:24:00,
2013-01-21 14:29:00,41.8,20.1,30.27,NNE,14,0.0,0.0,42,0.00,,---,0.00,VWS V14.00,2013-01-21 22:29:00,
2013-01-21 14:35:00,41.6,18.8,30.27,NNE,14,0.0,0.0,40,0.00,,---,0.00,VWS V14.00,2013-01-21 22:35:00,
2013-01-21 14:44:00,41.3,19.1,30.27,NNE,14,0.0,0.0,40,0.00,,---,0.00,VWS V14.00,2013-01-21 22:44:00,
2013-01-21 14:49:00,41.1,19.5,30.27,NNE,14,0.0,0.0,42,0.00,,---,0.00,VWS V14.00,2013-01-21 22:49:00,
2013-01-21 14:54:00,41.2,20.1,30.27,NNE,14,0.0,0.0,42,0.00,,---,0.00,VWS V14.00,2013-01-21 22:54:00,
2013-01-21 14:59:00,41.1,20.0,30.27,NNE,14,0.0,0.0,42,0.00,,---,0.00,VWS V14.00,2013-01-21 22:59:00,
2013-01-21 15:04:00,41.1,19.5,30.26,NNE,14,0.0,0.0,42,0.00,,---,0.00,VWS V14.00,2013-01-21 23:04:00,
2013-01-21 15:14:00,41.1,20.0,30.26,NNE,14,0.0,0.0,42,0.00,,---,0.00,VWS V14.00,2013-01-21 23:14:00,
2013-01-21 15:19:00,40.9,20.4,30.26,NNE,14,0.0,0.0,44,0.00,,---,0.00,VWS V14.00,2013-01-21 23:19:00,
2013-01-21 15:24:00,40.7,20.8,30.26,NNE,14,0.0,0.0,44,0.00,,---,0.00,VWS V14.00,2013-01-21 23:24:00,
2013-01-21 15:29:00,40.7,20.8,30.26,NNE,14,4.0,6.0,44,0.00,,---,0.00,VWS V14.00,2013-01-21 23:29:00,
2013-01-21 15:34:00,40.6,19.6,30.26,NNE,14,0.0,4.0,42,0.00,,---,0.00,VWS V14.00,2013-01-21 23:34:00,
2013-01-21 15:39:00,40.6,20.1,30.26,NNE,14,0.0,0.0,44,0.00,,---,0.00,VWS V14.00,2013-01-21 23:39:00,
2013-01-21 15:44:00,40.4,19.4,30.26,NNE,14,0.0,0.0,42,0.00,,---,0.00,VWS V14.00,2013-01-21 23:44:00,
2013-01-21 15:49:00,40.3,19.3,30.26,NNE,14,0.0,0.0,42,0.00,,---,0.00,VWS V14.00,2013-01-21 23:49:00,
2013-01-21 15:54:00,40.4,19.4,30.26,NNE,14,0.0,0.0,42,0.00,,---,0.00,VWS V14.00,2013-01-21 23:54:00,
2013-01-21 15:59:00,40.5,19.0,30.26,NNE,14,0.0,0.0,42,0.00,,---,0.00,VWS V14.00,2013-01-21 23:59:00,
2013-01-21 16:04:00,40.6,20.1,30.26,NNE,14,0.0,0.0,44,0.00,,---,0.00,VWS V14.00,2013-01-22 00:04:00,
2013-01-21 16:09:00,40.7,19.7,30.25,NNE,14,0.0,0.0,42,0.00,,---,0.00,VWS V14.00,2013-01-22 00:09:00,
2013-01-21 16:14:00,40.7,19.7,30.25,NNE,14,0.0,0.0,42,0.00,,---,0.00,VWS V14.00,2013-01-22 00:14:00,
2013-01-21 16:19:00,40.7,20.2,30.25,NNE,14,0.0,0.0,44,0.00,,---,0.00,VWS V14.00,2013-01-22 00:19:00,
2013-01-21 16:24:00,40.9,19.9,30.25,NNE,14,0.0,0.0,42,0.00,,---,0.00,VWS V14.00,2013-01-22 00:24:00,
2013-01-21 16:29:00,41.2,20.1,30.25,NNE,14,0.0,0.0,42,0.00,,---,0.00,VWS V14.00,2013-01-22 00:29:00,
2013-01-21 16:34:00,41.0,20.0,30.25,NNE,14,0.0,0.0,42,0.00,,---,0.00,VWS V14.00,2013-01-22 00:34:00,
2013-01-21 16:39:00,40.2,19.2,30.25,NNE,14,0.0,0.0,42,0.00,,---,0.00,VWS V14.00,2013-01-22 00:39:00,
2013-01-21 16:44:00,39.1,18.8,30.25,NNE,14,0.0,0.0,44,0.00,,---,0.00,VWS V14.00,2013-01-22 00:44:00,
2013-01-21 16:49:00,38.2,18.5,30.25,NNE,14,0.0,0.0,44,0.00,,---,0.00,VWS V14.00,2013-01-22 00:49:00,
2013-01-21 16:54:00,37.6,18.5,30.25,NNE,14,0.0,0.0,46,0.00,,---,0.00,VWS V14.00,2013-01-22 00:54:00,
2013-01-21 16:59:00,37.2,18.6,30.25,NNE,14,0.0,0.0,46,0.00,,---,0.00,VWS V14.00,2013-01-22 00:59:00,
2013-01-21 17:04:00,36.8,18.2,30.25,NNE,14,0.0,0.0,46,0.00,,---,0.00,VWS V14.00,2013-01-22 01:04:00,
2013-01-21 17:09:00,36.4,18.4,30.25,NNE,14,0.0,0.0,48,0.00,,---,0.00,VWS V14.00,2013-01-22 01:09:00,
2013-01-21 17:14:00,36.0,18.0,30.25,NNE,14,0.0,0.0,48,0.00,,---,0.00,VWS V14.00,2013-01-22 01:14:00,
2013-01-21 17:19:00,35.8,17.8,30.26,NNE,14,0.0,0.0,48,0.00,,---,0.00,VWS V14.00,2013-01-22 01:19:00,
2013-01-21 17:24:00,35.8,17.8,30.25,NNE,14,0.0,0.0,48,0.00,,---,0.00,VWS V14.00,2013-01-22 01:24:00,
2013-01-21 17:29:00,35.7,17.7,30.25,NNE,14,0.0,0.0,48,0.00,,---,0.00,VWS V14.00,2013-01-22 01:29:00,
2013-01-21 17:34:00,35.5,17.5,30.26,NNE,14,0.0,0.0,48,0.00,,---,0.00,VWS V14.00,2013-01-22 01:34:00,
2013-01-21 17:40:00,35.3,17.3,30.26,NNE,14,0.0,0.0,48,0.00,,---,0.00,VWS V14.00,2013-01-22 01:40:00,
2013-01-21 17:50:00,35.1,17.2,30.26,NNE,14,0.0,0.0,48,0.00,,---,0.00,VWS V14.00,2013-01-22 01:50:00,
2013-01-21 17:59:00,33.7,18.2,30.26,NNE,14,0.0,0.0,52,0.00,,---,0.00,VWS V14.00,2013-01-22 01:59:00,
2013-01-21 18:04:00,33.3,18.2,30.26,NNE,14,0.0,0.0,54,0.00,,---,0.00,VWS V14.00,2013-01-22 02:04:00,
2013-01-21 18:09:00,33.4,18.3,30.26,NNE,14,0.0,0.0,54,0.00,,---,0.00,VWS V14.00,2013-01-22 02:09:00,
2013-01-21 18:14:00,34.0,18.5,30.26,NNE,14,0.0,0.0,52,0.00,,---,0.00,VWS V14.00,2013-01-22 02:14:00,
2013-01-21 18:19:00,34.4,18.4,30.26,NNE,14,0.0,0.0,52,0.00,,---,0.00,VWS V14.00,2013-01-22 02:19:00,
2013-01-21 18:24:00,34.4,17.9,30.26,NNE,14,0.0,0.0,50,0.00,,---,0.00,VWS V14.00,2013-01-22 02:24:00,
2013-01-21 18:29:00,34.4,18.4,30.26,NNE,14,0.0,0.0,52,0.00,,---,0.00,VWS V14.00,2013-01-22 02:29:00,
2013-01-21 18:34:00,34.0,18.0,30.27,NNE,14,0.0,0.0,52,0.00,,---,0.00,VWS V14.00,2013-01-22 02:34:00,
2013-01-21 18:40:00,33.8,17.4,30.27,NNE,14,0.0,0.0,50,0.00,,---,0.00,VWS V14.00,2013-01-22 02:40:00,
2013-01-21 18:49:00,33.9,17.5,30.27,NNE,14,0.0,0.0,50,0.00,,---,0.00,VWS V14.00,2013-01-22 02:49:00,
2013-01-21 18:54:00,33.8,17.4,30.27,NNE,14,0.0,0.0,50,0.00,,---,0.00,VWS V14.00,2013-01-22 02:54:00,
2013-01-21 18:59:00,33.5,17.5,30.27,NNE,14,0.0,0.0,52,0.00,,---,0.00,VWS V14.00,2013-01-22 02:59:00,
2013-01-21 19:04:00,32.8,17.4,30.28,NNE,14,0.0,0.0,52,0.00,,---,0.00,VWS V14.00,2013-01-22 03:04:00,
2013-01-21 19:09:00,30.9,17.3,30.27,NNE,14,0.0,0.0,56,0.00,,---,0.00,VWS V14.00,2013-01-22 03:09:00,
2013-01-21 19:14:00,29.0,17.1,30.28,NNE,14,0.0,0.0,60,0.00,,---,0.00,VWS V14.00,2013-01-22 03:14:00,
2013-01-21 19:20:00,28.7,17.5,30.28,NNE,14,0.0,0.0,62,0.00,,---,0.00,VWS V14.00,2013-01-22 03:20:00,
2013-01-21 19:29:00,29.1,17.9,30.27,NNE,14,0.0,0.0,62,0.00,,---,0.00,VWS V14.00,2013-01-22 03:29:00,
2013-01-21 19:35:00,29.6,18.4,30.27,NNE,14,0.0,0.0,62,0.00,,---,0.00,VWS V14.00,2013-01-22 03:35:00,
2013-01-21 19:40:00,30.0,18.0,30.27,NNE,14,0.0,0.0,60,0.00,,---,0.00,VWS V14.00,2013-01-22 03:40:00,
2013-01-21 19:50:00,31.4,18.5,30.27,NNE,14,0.0,0.0,58,0.00,,---,0.00,VWS V14.00,2013-01-22 03:50:00,
2013-01-21 19:55:00,32.3,18.6,30.27,NNE,14,0.0,0.0,56,0.00,,---,0.00,VWS V14.00,2013-01-22 03:55:00,
2013-01-21 20:04:00,32.9,18.3,30.27,NNE,14,0.0,0.0,54,0.00,,---,0.00,VWS V14.00,2013-01-22 04:04:00,
2013-01-21 20:09:00,31.6,17.9,30.27,NNE,14,0.0,0.0,56,0.00,,---,0.00,VWS V14.00,2013-01-22 04:09:00,
2013-01-21 20:15:00,31.5,18.2,30.27,NNE,14,0.0,0.0,58,0.00,,---,0.00,VWS V14.00,2013-01-22 04:15:00,
2013-01-21 20:24:00,32.3,18.2,30.27,NNE,14,0.0,0.0,56,0.00,,---,0.00,VWS V14.00,2013-01-22 04:24:00,
2013-01-21 20:30:00,32.4,18.3,30.27,NNE,14,0.0,0.0,56,0.00,,---,0.00,VWS V14.00,2013-01-22 04:30:00,
2013-01-21 20:40:00,32.0,18.3,30.28,NNE,14,0.0,0.0,56,0.00,,---,0.00,VWS V14.00,2013-01-22 04:40:00,
2013-01-21 20:50:00,31.6,17.9,30.28,NNE,14,0.0,0.0,56,0.00,,---,0.00,VWS V14.00,2013-01-22 04:50:00,
2013-01-21 20:59:00,30.7,17.1,30.28,NNE,14,0.0,0.0,56,0.00,,---,0.00,VWS V14.00,2013-01-22 04:59:00,
2013-01-21 21:04:00,29.9,17.1,30.28,NNE,14,0.0,0.0,58,0.00,,---,0.00,VWS V14.00,2013-01-22 05:04:00,
2013-01-21 21:10:00,30.2,17.8,30.28,NNE,14,0.0,0.0,60,0.00,,---,0.00,VWS V14.00,2013-01-22 05:10:00,
2013-01-21 21:14:00,30.7,17.9,30.28,NNE,14,0.0,0.0,58,0.00,,---,0.00,VWS V14.00,2013-01-22 05:14:00,
2013-01-21 21:19:00,30.9,18.1,30.28,NNE,14,0.0,0.0,58,0.00,,---,0.00,VWS V14.00,2013-01-22 05:19:00,
2013-01-21 21:24:00,30.9,18.1,30.28,NNE,14,0.0,0.0,58,0.00,,---,0.00,VWS V14.00,2013-01-22 05:24:00,
2013-01-21 21:30:00,30.8,18.0,30.28,NNE,14,0.0,0.0,58,0.00,,---,0.00,VWS V14.00,2013-01-22 05:30:00,
2013-01-21 21:40:00,30.6,17.8,30.29,NNE,14,0.0,0.0,58,0.00,,---,0.00,VWS V14.00,2013-01-22 05:40:00,
2013-01-21 21:45:00,30.9,17.7,30.29,NNE,14,0.0,0.0,58,0.00,,---,0.00,VWS V14.00,2013-01-22 05:45:00,
2013-01-21 21:54:00,27.7,16.2,30.28,NNE,14,0.0,0.0,62,0.00,,---,0.00,VWS V14.00,2013-01-22 05:54:00,
2013-01-21 21:59:00,26.9,16.5,30.28,NNE,14,0.0,0.0,64,0.00,,---,0.00,VWS V14.00,2013-01-22 05:59:00,
2013-01-21 22:05:00,27.4,17.0,30.29,NNE,14,0.0,0.0,64,0.00,,---,0.00,VWS V14.00,2013-01-22 06:05:00,
2013-01-21 22:14:00,28.6,17.1,30.29,NNE,14,0.0,0.0,62,0.00,,---,0.00,VWS V14.00,2013-01-22 06:14:00,
2013-01-21 22:20:00,29.3,17.3,30.29,NNE,14,0.0,0.0,60,0.00,,---,0.00,VWS V14.00,2013-01-22 06:20:00,
2013-01-21 22:29:00,30.3,17.9,30.29,NNE,14,0.0,0.0,60,0.00,,---,0.00,VWS V14.00,2013-01-22 06:29:00,
2013-01-21 22:34:00,30.5,17.7,30.29,NNE,14,0.0,0.0,58,0.00,,---,0.00,VWS V14.00,2013-01-22 06:34:00,
2013-01-21 22:39:00,30.5,17.7,30.29,NNE,14,0.0,0.0,58,0.00,,---,0.00,VWS V14.00,2013-01-22 06:39:00,
2013-01-21 22:44:00,30.2,17.4,30.29,NNE,14,0.0,0.0,58,0.00,,---,0.00,VWS V14.00,2013-01-22 06:44:00,
2013-01-21 22:50:00,29.6,17.2,30.29,NNE,14,0.0,0.0,60,0.00,,---,0.00,VWS V14.00,2013-01-22 06:50:00,
2013-01-21 23:00:00,29.0,17.1,30.29,NNE,14,0.0,0.0,60,0.00,,---,0.00,VWS V14.00,2013-01-22 07:00:00,
2013-01-21 23:05:00,28.6,17.1,30.29,NNE,14,0.0,0.0,62,0.00,,---,0.00,VWS V14.00,2013-01-22 07:05:00,
2013-01-21 23:14:00,27.8,16.7,30.29,NNE,14,0.0,0.0,62,0.00,,---,0.00,VWS V14.00,2013-01-22 07:14:00,
2013-01-21 23:20:00,27.6,16.9,30.29,NNE,14,0.0,0.0,64,0.00,,---,0.00,VWS V14.00,2013-01-22 07:20:00,
2013-01-21 23:29:00,27.0,16.3,30.29,NNE,14,0.0,0.0,64,0.00,,---,0.00,VWS V14.00,2013-01-22 07:29:00,
2013-01-21 23:35:00,26.7,16.7,30.29,NNE,14,0.0,0.0,66,0.00,,---,0.00,VWS V14.00,2013-01-22 07:35:00,
2013-01-21 23:40:00,26.7,16.7,30.29,NNE,14,0.0,0.0,66,0.00,,---,0.00,VWS V14.00,2013-01-22 07:40:00,
2013-01-21 23:45:00,26.8,17.1,30.29,NNE,14,0.0,0.0,66,0.00,,---,0.00,VWS V14.00,2013-01-22 07:45:00,
2013-01-21 23:55:00,26.8,16.8,30.29,NNE,14,0.0,0.0,66,0.00,,---,0.00,VWS V14.00,2013-01-22 07:55:00,